Starlink 4317

operational
NORAD ID: 53058 Int'l Des: 2022-077 Owner: SPXS Country: US Constellation: starlink
LEOCIRCULARRETROGRADESSO

About Starlink 4317

Description loading...

Live Position

Loading 3D Globe...

Upcoming Passes

Altitude History

Altitude vs Time

uPlot chart will show altitude changes over time

Two-Line Element Set

1 53058U 22077R 25303.26546913 -.00000550 00000-0 -38284-4 0 9999
2 53058 97.6025 122.4860 0002506 179.8812 180.2414 15.01257798181357
Epoch: Oct 30, 2025 • Age: 19 hours

Current Status

Altitude 590.5 km
Velocity 7.56 km/s
Sub-Earth Point -73.24°S, 91.29°E
Launch Date Jul 11, 2022
Age 3.3 years
Type internet

Technical Details

Classification Payload
Mass 297.00 kg
Dry Mass 275.00 kg
Total Mass 297.00 kg
Length 0.20 m
Diameter 2.80 m
Span 9.00 m
Shape Box + pan
Manufacturer SPXS
Bus Type Starlink
Phase Status In Orbit
Owner/State SPXS/US

Large Constellations

Loading constellations...